Regional Weather Roundup
Issued by NWS

Home | Current Version | Previous Version | Graphics & Text | Print | Product List | Glossary On
Versions: 1 2 3 4 5 6 7 8 9 10 11 12 13 14 15 16 17 18 19 20 21 22 23 24 25 26 27 28 29 30 31 32 33 34 35 36 37 38 39 40 41 42 43 44 45 46 47 48 49 50
000
ASUS44 KMEG 282110
RWRTN
TENNESSEE HOURLY STATE WEATHER ROUNDUP
NATIONAL WEATHER SERVICE MEMPHIS TN
400 PM CDT WED JUN 28 2017

TNZ002-004-019-021-049-052-054-088>092-282200-
WEST TENNESSEE

CITY           SKY/WX    TMP DP  RH WIND       PRES   REMARKS
MEMPHIS INTL   MOSUNNY   89  63  41 SE12G20   30.00F HX  90
NWS MEMPHIS      N/A     90 N/A N/A MISG        N/A
JACKSON        MOSUNNY   87  64  46 S8G17     30.01F
SOMERVILLE     MOSUNNY   86  66  51 S6        30.00F
COVINGTON      SUNNY     88  63  42 S13       29.99F
UNION CITY     MOSUNNY   86  64  48 MISG      29.99F
BOLIVAR        MOSUNNY   86  64  48 S9        30.01S
HUNTINGDON     MOSUNNY   86  63  45 S9        30.01F
LEXINGTON      MOSUNNY   86  63  45 VRB7      30.02F
SELMER         SUNNY     88  63  42 SE10      30.01F
SAVANNAH       MOSUNNY   88  63  42 VRB7G15   30.01F
$$

TNZ008-025-027-028-033-062-065-066-282200-
NORTH MIDDLE TENNESSEE

CITY           SKY/WX    TMP DP  RH WIND       PRES   REMARKS
NASHVILLE      PTSUNNY   85  56  37 S12       30.06F
PORTLAND       SUNNY     82  57  42 SE7       30.06F
CLARKSVILLE    MOSUNNY   83  59  44 S5        30.04F
SMYRNA         MOSUNNY   86  61  42 S9        30.06F
COOKEVILLE     SUNNY     82  54  36 CALM      30.09F
GALLATIN       SUNNY     86  55  35 VRB3      30.08F
CROSSVILLE     SUNNY     78  46  32 SW5       30.14F
$$

TNZ061-075-076-078-094-096-097-282200-
SOUTH MIDDLE TENNESSEE

CITY           SKY/WX    TMP DP  RH WIND       PRES   REMARKS
FAYETTEVILLE   SUNNY     84  61  45 E6        30.07F
TULLAHOMA      SUNNY     82  52  34 SW6       30.10F
WINCHESTER     SUNNY     84  57  39 CALM      30.09F
MCMINNVILLE    SUNNY     84  57  39 VRB5      30.09F
COLUMBIA       SUNNY     84  63  48 VRB3G13   30.03F
SHELBYVILLE    SUNNY     84  59  42 SE7       30.07F
$$

TNZ017-018-042-046-047-282200-
NORTHEAST TENNESSEE

CITY           SKY/WX    TMP DP  RH WIND       PRES   REMARKS
TRI CITIES     MOSUNNY   82  52  35 SW5       30.15F
ELIZABETHTON   SUNNY     82  55  39 NW8       30.15S
$$

TNZ012-013-036-069-073-074-282200-
CENTRAL EAST TENNESSEE

CITY           SKY/WX    TMP DP  RH WIND       PRES   REMARKS
KNOXVILLE      MOSUNNY   84  58  40 W7        30.09F
OAK RIDGE      SUNNY     85  55  35 VRB6      30.12F
DOWNTOWN KNOXV SUNNY     84  63  48 W9        30.09F
GATLINBURG     MOSUNNY   84  55  37 VRB5      30.10F
MORRISTOWN     SUNNY     82  57  42 N6        30.11F
JACKSBORO      SUNNY     82  55  39 SW8       30.15F
$$

TNZ083-085-099-282200-
SOUTHEAST TENNESSEE

CITY           SKY/WX    TMP DP  RH WIND       PRES   REMARKS
CHATTANOOGA    MOSUNNY   87  53  31 CALM      30.09F
DAYTON         CLEAR     84  57  39 CALM      30.08F
$$

SKY/WX REPORTED AS FAIR MEANS FEW OR NO CLOUDS BELOW
12 THOUSAND FEET.




USA.gov is the U.S. government's official web portal to all federal, state and local government web resources and services.